Wind_Speed
120 121 122 123 124 125 126 126 126 127 127 127 127 127 126 126 125 124 123 122 121 120 118 117 115 114 113 112 111 111 111 110 109 109 108 107 106 105 104 104 104 103 103 102 101 101 100 100 100 100 100 100 100 101 101 101 101 101 101 101 101 101 101 101 101 101 100 100 100 100 100 100 100 100 100 101 101 101 101 102 102 103 103 103 104 105
123 124 125 125 126 126 127 127 127 127 127 126 125 124 123 122 121 119 118 117 115 114 113 112 110 109 108 107 107 106 106 105 105 104 103 103 102 101 100 100 99 99 99 98 98 97 97 96 96 96 96 96 97 97 98 98 98 98 98 98 98 98 98 98 98 98 98 98 97 97 97 97 96 97 97 97 97 97 97 98 98 99 99 99 99 100
126 127 127 127 127 127 127 127 126 125 124 123 122 120 118 117 115 114 113 112 110 109 108 107 106 105 104 103 103 102 101 101 100 100 99 98 98 97 96 96 95 95 95 95 94 94 94 93 93 93 93 93 94 94 95 95 96 96 96 96 96 95 96 96 96 96 96 95 95 95 95 94 94 94 94 94 95 95 95 95 95 95 96 96 96 97
128 128 128 127 127 126 125 125 123 122 121 119 117 115 113 112 110 109 108 107 106 105 105 104 103 102 100 99 99 98 97 97 96 95 95 94 94 93 93 92 92 92 91 91 91 91 91 90 90 90 90 90 90 91 92 92 93 93 93 93 93 93 93 93 93 94 93 93 93 93 93 93 93 92 92 92 92 93 93 93 93 93 94 93 94 94
128 128 128 127 125 124 122 121 119 117 116 114 112 110 108 107 106 105 104 103 103 102 101 100 99 98 97 96 95 94 93 92 92 91 91 91 90 90 89 89 88 88 88 88 88 88 88 88 87 87 87 87 87 87 88 89 90 90 90 90 90 90 91 91 91 91 91 91 91 91 91 91 91 91 90 91 91 91 91 91 92 92 92 92 92 92
128 127 126 124 122 120 118 116 114 112 110 108 107 105 104 103 102 102 101 100 100 99 98 97 96 94 93 92 91 90 89 88 88 88 87 87 87 86 86 86 85 85 85 85 85 85 85 85 84 84 83 83 83 84 84 85 86 87 87 87 87 88 88 88 88 88 88 88 88 88 88 88 88 88 88 88 88 89 89 89 90 90 90 90 90 90
126 124 122 120 118 115 113 111 109 107 106 104 103 102 101 100 99 99 98 97 96 96 94 93 92 91 90 89 88 86 85 85 84 84 84 84 84 83 83 82 82 82 82 82 82 82 82 81 81 81 80 80 80 80 81 81 82 83 83 84 84 85 85 85 85 85 85 86 86 86 86 86 86 86 86 86 86 86 87 87 88 88 88 88 88 88
123 120 117 115 112 110 108 106 105 103 102 101 100 99 98 97 96 95 95 94 93 92 91 90 89 88 87 86 85 83 82 81 81 81 81 81 81 80 80 80 79 79 79 79 79 79 78 78 78 77 77 77 77 77 78 79 79 80 81 81 82 82 82 82 83 83 83 83 83 83 83 83 84 83 84 84 84 84 84 85 85 85 85 85 86 86
118 115 112 110 107 106 104 103 101 100 99 98 97 96 95 94 93 92 91 91 90 90 88 87 85 84 84 83 82 80 79 79 79 78 78 78 78 78 77 77 77 76 76 76 76 76 75 75 75 75 75 75 75 75 76 76 77 78 78 79 79 80 80 80 80 80 80 80 81 81 81 81 81 81 81 81 81 81 82 82 83 83 83 83 84 84
112 110 107 105 103 102 101 100 99 97 96 95 94 93 92 91 90 89 88 87 87 87 85 84 83 82 81 80 79 78 77 77 77 76 76 76 76 75 75 74 74 74 74 74 73 73 73 73 73 73 73 73 74 74 74 75 75 76 76 77 77 77 78 78 78 78 78 78 78 78 79 79 79 79 79 79 79 79 79 80 80 81 81 81 82 82
108 105 103 102 100 99 98 97 96 94 93 92 91 90 89 89 88 86 85 84 84 83 83 82 80 79 78 77 76 76 75 75 75 75 75 74 74 73 73 72 72 72 72 72 72 72 71 71 71 71 71 72 72 72 72 73 73 73 74 74 75 75 75 76 76 76 76 76 76 76 76 77 77 77 77 76 77 77 77 78 78 79 79 79 80 80
103 102 100 99 97 96 95 93 92 91 90 90 89 88 87 86 85 84 83 82 81 80 80 79 78 77 76 75 74 73 73 73 74 74 73 73 72 71 71 70 70 70 70 70 70 70 70 70 70 70 70 70 70 70 70 70 71 71 72 72 72 73 73 73 73 73 73 73 73 73 74 74 74 74 74 74 74 74 75 75 76 77 77 78 78 78
100 98 97 96 95 93 92 91 89 88 87 87 86 85 84 83 82 82 80 79 79 78 77 77 76 76 74 73 72 71 71 72 72 72 72 72 71 70 69 68 68 68 68 68 68 68 68 68 68 68 68 67 67 67 68 68 68 69 69 69 70 70 70 70 70 70 70 70 70 70 71 71 72 72 72 72 72 72 72 73 74 75 75 76 77 77
97 95 94 93 92 90 89 88 87 86 85 84 83 82 81 81 80 79 78 77 76 76 75 75 74 74 73 72 70 69 69 70 70 71 71 70 69 68 66 66 66 66 66 66 66 66 66 66 65 65 65 65 65 65 65 65 66 66 66 66 67 67 67 67 67 67 67 67 67 67 68 68 69 69 69 69 69 69 70 70 71 72 73 74 75 75
94 92 91 90 88 87 86 86 85 84 83 82 81 80 79 78 77 76 76 75 74 73 73 73 72 72 71 70 69 67 67 67 68 69 69 68 67 65 63 63 63 64 64 64 64 64 63 63 62 62 62 62 62 62 62 62 63 63 63 63 63 63 63 63 63 63 63 63 64 64 64 65 65 66 66 66 66 67 67 68 69 70 71 72 73 74
91 89 88 86 85 84 84 83 83 82 80 79 78 78 77 76 75 74 73 73 72 71 71 70 70 70 70 69 67 65 64 65 65 66 67 66 65 63 61 60 61 62 62 62 61 60 60 59 59 59 59 59 59 59 59 59 60 60 60 60 60 60 60 60 60 60 60 60 60 61 61 62 62 63 63 63 63 64 64 65 66 67 68 70 71 72
87 86 85 83 82 82 81 81 80 79 78 77 76 76 75 74 74 72 72 71 70 69 69 68 68 68 68 67 66 64 62 62 62 63 64 63 62 60 58 57 58 59 60 59 58 57 57 57 57 57 56 56 56 56 56 56 57 57 57 57 57 57 57 57 57 57 57 57 57 58 58 59 59 60 60 60 60 61 61 62 63 64 66 67 68 69
84 83 82 81 80 79 79 79 78 77 76 75 74 74 73 73 72 71 70 69 68 67 67 66 66 66 65 65 64 63 61 60 60 61 61 60 59 57 55 55 56 57 57 56 55 54 54 54 54 54 54 54 54 54 53 53 53 54 54 54 54 54 54 54 54 54 54 54 55 55 55 56 56 57 57 57 58 58 59 59 60 62 63 64 65 66
82 81 80 79 78 77 77 77 76 75 74 73 73 72 72 71 70 70 69 67 67 66 65 64 64 63 63 62 62 61 59 58 58 58 58 57 56 54 53 53 54 54 54 53 52 52 52 52 51 51 51 51 51 51 51 51 51 51 51 51 51 51 51 51 51 51 52 52 52 52 52 53 53 54 54 54 55 55 56 57 58 59 60 62 63 64
80 79 78 77 76 76 75 75 74 73 72 71 71 70 70 70 69 68 67 66 65 64 63 63 62 61 60 60 59 58 57 56 56 56 55 54 53 52 51 51 51 51 51 50 50 49 49 49 49 49 48 48 48 48 48 48 48 48 48 48 48 48 48 49 49 49 49 49 49 49 50 50 50 51 51 52 52 53 54 54 55 57 58 59 60 62
78 77 77 76 75 74 73 73 72 71 70 70 69 69 68 68 68 67 66 65 64 63 62 61 60 59 58 57 56 56 55 54 54 53 53 52 51 49 49 49 49 49 48 48 47 47 47 46 46 46 46 46 46 46 46 45 45 45 45 45 45 46 46 46 46 46 46 46 46 47 47 47 48 48 49 49 50 51 52 52 53 54 55 57 58 59
77 76 75 75 74 73 72 71 70 69 69 68 68 67 67 66 66 65 64 63 62 61 60 59 58 56 55 54 54 53 52 52 51 51 51 50 49 48 47 47 46 46 46 45 45 45 44 44 44 44 44 44 44 43 43 43 43 43 43 43 43 43 43 44 44 44 44 44 44 44 45 45 45 46 47 47 48 49 49 50 51 52 53 54 55 56
76 75 74 74 73 71 70 69 68 68 67 67 66 66 65 65 64 63 62 61 60 60 58 57 56 54 53 52 51 50 50 49 49 49 48 48 47 46 45 45 44 44 44 43 43 42 42 42 42 42 42 41 41 41 41 41 41 41 41 41 41 41 41 41 41 41 42 42 42 42 42 43 43 44 45 45 46 47 47 48 49 50 51 52 53 54
74 74 73 72 71 70 69 68 67 66 66 65 65 64 64 63 62 61 60 59 58 57 56 55 54 52 51 49 49 48 48 47 47 47 46 46 45 44 43 43 42 42 41 41 41 40 40 40 40 39 39 39 39 39 39 39 39 39 38 38 38 39 39 39 39 39 40 40 40 40 40 41 41 42 42 43 44 45 45 46 47 48 49 50 51 52
73 72 71 70 69 68 67 66 65 64 64 64 63 63 62 61 61 59 58 57 56 55 54 53 52 50 49 48 47 46 46 45 45 44 44 44 43 43 42 41 41 40 40 39 39 38 38 38 38 37 37 37 37 37 37 37 37 36 36 36 36 36 37 37 37 37 37 38 38 38 38 39 39 40 40 41 42 43 43 44 45 46 46 47 48 49
71 70 69 68 67 66 65 64 63 63 62 62 61 61 60 59 58 57 56 55 54 53 52 51 50 48 47 46 45 44 44 43 43 42 42 42 41 41 40 40 39 38 38 37 37 36 36 36 36 36 35 35 35 35 35 35 34 34 34 34 34 34 34 34 35 35 35 35 36 36 36 37 37 38 38 39 40 40 41 42 43 43 44 45 46 47
69 68 67 66 65 64 63 62 61 61 60 59 59 58 58 57 56 55 54 53 52 50 50 49 48 46 45 44 43 43 42 41 41 40 40 40 40 39 39 38 37 37 36 36 35 35 35 34 34 34 34 33 33 33 33 33 32 32 32 32 32 32 32 32 32 33 33 33 34 34 34 35 35 36 36 37 37 38 39 40 40 41 42 43 44 45
67 66 64 63 62 62 61 60 59 59 58 57 56 56 55 54 53 52 52 51 49 48 48 47 46 45 44 43 42 41 40 40 39 39 38 38 38 37 37 36 35 35 34 34 34 33 33 33 33 32 32 32 31 31 31 31 31 30 30 30 30 30 30 30 30 30 31 31 31 32 32 33 33 34 34 35 35 36 36 37 38 39 40 41 42 43
64 63 62 61 60 60 59 58 57 56 56 55 54 53 52 51 50 50 49 48 47 46 46 45 44 43 42 41 40 40 39 38 37 37 36 36 36 35 35 34 34 33 33 32 32 32 32 31 31 31 30 30 30 29 29 29 29 28 28 28 28 28 28 28 28 28 28 29 29 29 30 30 31 31 32 32 33 33 34 35 36 37 38 39 40 41
62 61 60 59 58 57 57 56 55 54 53 52 51 50 49 48 47 47 46 46 45 44 44 43 42 41 41 40 39 38 37 36 36 35 35 34 34 33 33 32 32 31 31 31 30 30 30 30 30 29 29 29 28 28 27 27 27 27 26 26 26 26 26 26 26 26 26 26 27 27 27 28 28 29 29 30 30 31 32 32 33 34 36 37 38 39
60 59 58 57 56 55 54 53 53 52 51 50 48 48 47 46 45 44 44 43 43 42 42 41 40 40 39 38 37 36 35 34 34 33 33 32 32 31 31 30 30 30 29 29 29 29 29 29 29 28 28 27 27 26 26 25 25 25 25 24 24 24 24 23 23 24 24 24 24 25 25 25 26 26 27 27 28 28 29 30 31 32 33 34 35 37
57 56 55 54 54 53 52 51 50 49 48 47 46 45 44 43 43 42 41 41 40 40 40 39 39 38 37 36 35 34 33 33 32 31 31 30 30 30 29 29 28 28 28 28 28 28 28 28 27 27 26 26 25 25 24 24 23 23 23 22 22 22 21 21 21 21 21 22 22 23 23 23 24 24 24 25 25 26 26 27 28 30 31 32 33 34
55 54 53 52 51 51 50 49 48 47 46 45 43 42 42 41 40 40 39 39 38 38 38 37 37 36 35 34 33 32 32 31 30 30 29 28 28 28 27 27 27 27 27 27 27 26 26 26 26 25 25 24 24 23 22 22 22 21 21 20 20 20 19 19 19 19 19 19 20 20 21 21 22 22 22 23 23 24 24 25 26 27 28 30 31 32
53 52 51 50 49 48 47 46 45 44 43 42 41 40 39 39 38 38 37 37 36 36 36 35 34 34 33 32 31 31 30 29 29 28 27 27 26 26 26 26 26 26 26 26 26 25 25 25 24 24 23 23 22 21 21 20 20 19 19 19 18 17 17 17 17 17 17 17 18 19 19 20 20 21 21 21 22 22 23 24 24 26 27 28 29 30
50 50 49 48 47 46 45 44 43 42 41 40 39 38 38 37 36 36 35 35 34 34 34 33 32 32 31 30 30 29 28 28 27 26 26 25 25 25 24 24 24 24 24 25 24 24 24 23 23 23 22 21 20 20 19 19 18 18 17 17 16 15 15 15 15 15 15 16 16 17 17 18 19 19 20 20 21 21 22 23 23 24 25 26 27 29
48 47 46 45 44 43 43 42 41 40 39 38 37 36 36 35 34 34 33 33 32 32 32 31 31 30 30 29 28 27 27 26 26 25 24 24 24 23 23 23 23 23 23 23 23 23 23 22 22 21 20 20 19 18 17 17 17 16 15 15 14 14 13 13 13 13 13 14 14 15 16 16 17 18 19 19 20 21 21 22 23 23 24 25 26 27
46 45 44 43 42 41 40 39 38 38 37 36 35 35 34 33 33 32 31 31 30 30 29 29 29 29 28 28 27 26 26 25 24 24 23 23 23 22 22 22 22 22 22 22 22 22 22 21 21 20 19 18 17 16 16 15 15 14 13 13 12 12 11 11 11 11 11 12 13 13 14 15 16 17 17 18 19 20 21 21 22 23 24 24 25 26
44 43 42 41 40 39 38 37 36 36 35 34 33 33 32 31 31 30 30 29 29 28 28 28 27 27 27 26 26 25 25 24 23 23 22 22 22 21 21 21 21 21 21 21 21 21 20 20 19 19 18 17 16 15 14 14 13 13 12 11 11 10 10 10 9 10 10 10 11 12 13 13 14 15 16 17 18 19 20 21 22 23 23 24 25 25
41 40 39 39 38 37 36 35 34 34 33 32 32 31 30 30 29 28 28 27 27 27 26 26 26 26 26 25 25 24 23 23 22 22 21 21 20 20 20 20 20 20 20 20 20 20 19 19 18 17 16 15 14 14 13 12 12 11 10 10 9 9 8 8 8 8 9 9 10 11 11 12 13 14 15 16 17 18 19 20 22 22 23 24 24 25
39 38 37 36 36 35 34 33 32 32 31 31 30 29 28 28 27 27 26 26 26 25 25 25 25 25 24 24 24 23 22 22 21 21 20 20 19 19 19 19 19 19 19 19 19 18 18 18 17 16 15 14 13 12 12 11 10 10 9 8 7 7 7 7 7 7 8 8 9 10 11 12 13 14 15 16 17 18 19 20 21 22 23 24 25 25
37 36 35 34 34 33 32 31 31 30 29 29 28 27 27 26 25 25 25 24 24 24 24 24 24 24 23 23 23 22 21 21 20 20 20 19 19 18 18 18 18 18 18 18 18 17 17 17 16 15 14 13 12 12 11 10 9 8 8 7 7 6 6 6 6 6 7 7 8 9 10 11 12 13 15 16 17 18 18 19 21 22 23 24 25 26
35 34 33 32 32 31 30 30 29 28 28 27 26 25 25 24 24 23 23 23 23 23 23 23 23 23 23 23 22 21 20 20 19 19 19 18 18 17 17 17 17 16 17 17 17 17 16 16 15 14 13 12 11 11 10 9 8 7 7 6 6 6 6 5 6 6 6 7 8 9 10 11 12 13 14 16 17 18 19 19 21 22 23 24 25 26
32 32 31 31 30 29 29 28 27 27 26 25 25 24 23 23 22 22 22 22 22 22 22 22 22 22 22 22 21 20 19 19 18 18 18 17 17 16 16 16 16 15 16 16 16 16 15 15 14 13 12 12 11 10 9 8 7 6 6 6 5 5 5 5 5 6 6 7 8 8 9 11 12 13 14 16 17 18 19 20 21 22 23 24 25 26
31 30 29 29 28 28 27 26 26 25 24 24 23 22 22 21 21 21 21 21 21 21 21 21 21 21 21 21 20 19 18 18 17 17 17 16 16 15 15 15 15 15 15 15 15 15 15 14 13 12 11 11 10 9 8 7 6 6 5 5 5 5 5 5 5 6 6 7 8 8 9 10 12 13 14 16 17 18 19 20 21 22 23 24 25 27
29 28 28 27 27 26 25 25 24 24 23 22 21 21 20 20 20 20 20 20 20 20 20 20 20 20 20 19 19 18 17 17 16 16 16 15 15 15 15 14 14 14 14 14 14 14 14 13 13 12 11 10 9 9 8 7 6 5 5 5 5 5 5 5 5 5 6 7 8 8 9 10 12 13 14 15 17 18 19 20 21 22 23 24 25 27
27 26 26 26 25 24 24 23 23 22 21 21 20 20 20 19 19 19 19 19 19 19 19 19 19 19 18 18 17 16 16 16 15 15 15 15 15 14 14 14 14 13 13 13 13 13 13 12 12 11 10 9 9 8 7 6 6 5 5 4 4 4 4 5 5 5 6 7 8 9 10 11 12 13 14 15 16 18 19 20 21 22 23 24 25 27
26 25 24 24 23 23 22 22 21 21 20 20 19 19 19 19 19 19 19 19 19 18 18 18 18 18 17 16 16 15 15 14 14 14 15 14 14 14 14 13 13 13 12 12 12 12 11 11 11 10 9 9 8 7 7 6 5 4 4 4 4 4 4 5 5 6 7 7 8 9 10 11 12 13 14 15 16 18 19 20 21 22 23 24 25 26
24 24 23 23 22 21 21 21 20 19 19 19 19 18 18 18 18 18 18 18 18 18 18 17 17 17 16 15 15 14 14 14 14 14 14 14 14 14 13 13 13 12 12 11 11 11 10 10 10 9 9 8 8 7 6 5 5 4 4 4 4 4 5 5 6 7 7 8 9 9 10 11 12 13 14 15 16 17 19 20 21 22 23 24 25 26
23 22 22 21 21 20 20 19 19 19 19 18 18 18 18 18 18 18 18 18 18 18 17 17 16 16 15 14 14 13 13 13 13 13 13 13 13 13 13 13 12 12 11 11 10 10 9 9 9 8 8 7 7 6 6 5 5 4 4 4 4 5 6 6 7 7 8 8 9 10 11 11 12 13 14 15 16 17 19 20 21 22 23 24 25 26
22 22 21 20 20 19 19 19 19 18 18 18 18 18 18 17 17 17 17 17 18 17 17 17 16 15 14 14 13 12 12 12 13 13 13 13 13 13 13 12 12 11 11 10 10 9 9 9 8 8 7 7 6 6 5 5 4 4 4 4 5 5 6 7 7 8 8 9 9 10 11 11 12 13 14 15 16 17 18 19 21 22 23 24 25 26
22 21 20 20 19 19 19 18 18 18 18 18 18 18 18 17 17 17 17 17 17 17 17 17 16 15 14 13 12 12 12 12 12 12 12 12 12 12 12 11 11 11 10 9 9 8 8 8 7 7 7 6 6 5 4 4 4 4 4 4 5 6 7 7 8 9 9 10 10 11 11 12 12 13 14 15 16 17 18 19 21 22 23 24 25 26
Wind_Direction
294 294 294 293 293 293 292 292 292 292 291 291 291 291 290 290 289 289 289 288 288 287 287 286 285 285 284 284 283 283 282 282 282 282 281 281 281 281 280 280 279 279 278 278 277 276 276 275 274 274 273 273 272 271 271 270 270 269 268 268 267 267 266 266 266 265 265 264 263 263 262 261 261 260 259 259 258 258 257 257 256 256 255 254 254 253
295 295 295 294 294 294 293 293 293 293 293 292 292 292 291 291 290 290 289 289 288 288 287 286 286 285 285 284 284 283 283 283 282 282 282 282 281 281 280 280 279 279 278 277 277 276 275 274 274 273 272 272 271 271 270 270 269 269 268 268 267 267 267 266 266 265 265 264 264 263 263 262 261 261 260 259 259 258 258 257 256 256 255 254 254 253
296 296 295 295 295 295 295 295 294 294 294 293 293 292 292 291 291 290 290 289 289 288 287 287 286 286 285 285 284 284 284 283 283 283 282 282 281 281 280 280 279 278 278 277 276 276 275 274 273 273 272 271 271 270 270 269 269 269 268 268 268 267 267 266 266 266 265 265 264 264 263 263 262 261 261 260 259 259 258 257 257 256 255 254 254 253
297 296 296 296 296 296 296 295 295 295 294 294 293 293 292 292 291 291 290 289 289 288 288 287 287 286 286 285 285 284 284 284 283 283 283 282 281 281 280 280 279 278 278 277 276 276 275 274 273 272 272 271 270 270 270 269 269 269 269 268 268 268 267 267 266 266 265 265 265 264 264 263 262 262 261 260 260 259 258 258 257 256 255 255 254 253
297 297 297 297 297 297 296 296 296 295 295 294 294 293 293 292 292 291 290 290 289 289 288 288 287 287 286 286 285 285 285 284 284 283 283 282 282 281 280 280 279 278 278 277 276 276 275 274 274 273 272 271 271 270 270 270 269 269 269 268 268 267 267 266 266 265 265 265 264 264 263 263 262 261 261 260 259 259 258 257 257 256 255 254 254 253
298 297 297 297 297 297 297 297 296 295 295 295 294 294 293 293 292 291 291 290 290 289 289 288 288 287 287 286 286 286 285 285 284 284 283 282 282 281 280 280 279 278 278 277 276 276 275 275 274 274 273 272 272 271 270 270 269 269 269 268 267 267 266 266 265 265 264 264 263 263 262 262 261 260 260 259 259 258 257 257 256 256 255 254 254 253
298 298 298 298 298 298 297 297 296 296 295 295 294 294 293 293 292 292 291 290 290 289 289 289 288 288 288 287 287 286 286 285 285 284 283 282 282 281 280 280 279 279 278 277 277 276 276 276 275 275 274 273 272 271 270 270 269 268 268 267 267 266 266 265 264 264 263 263 262 262 261 261 260 260 259 258 258 257 257 256 255 255 254 254 253 252
299 299 299 299 299 298 298 297 297 296 296 295 295 294 294 293 292 292 292 291 291 290 290 289 289 289 288 288 288 287 287 286 285 284 284 283 282 281 281 280 280 279 278 278 277 277 277 276 276 275 274 273 272 271 270 269 268 268 267 267 266 266 265 264 264 263 263 262 262 261 261 260 259 259 258 257 257 256 256 255 255 254 254 253 252 252
299 299 299 299 299 299 298 298 297 297 296 296 295 295 294 293 293 292 292 292 291 291 291 290 290 290 289 289 289 288 287 287 286 285 284 283 283 282 282 281 280 280 279 279 278 278 277 277 276 275 274 273 272 271 270 269 268 268 267 266 266 265 265 264 264 263 263 262 261 261 260 260 259 258 258 257 256 256 255 254 254 254 253 252 252 251
300 300 300 300 299 299 299 298 298 297 297 296 295 295 294 294 293 293 292 292 292 292 292 291 291 290 290 290 289 289 288 288 286 286 285 284 283 283 282 282 281 281 280 280 279 278 278 277 276 275 274 273 272 271 270 269 268 268 267 267 266 265 265 264 264 263 263 262 261 261 260 260 259 258 257 257 256 255 254 254 253 253 252 252 251 250
301 301 301 300 300 299 299 298 298 297 297 296 296 295 295 294 294 294 293 293 293 293 292 292 292 291 291 290 290 290 289 288 287 286 285 285 284 284 283 283 282 282 281 281 280 279 278 277 276 275 274 273 272 271 271 270 269 268 268 267 266 266 265 265 264 263 263 262 261 261 260 259 259 258 257 256 255 254 254 253 253 252 251 251 250 249
301 301 301 300 300 300 299 299 298 297 297 296 296 295 295 295 295 294 294 294 294 294 293 293 293 292 291 291 291 290 289 289 288 287 286 285 285 284 284 283 283 282 282 281 280 279 278 277 276 275 274 273 273 272 271 270 270 269 268 267 267 266 265 265 264 263 263 262 261 261 260 259 259 258 257 256 255 254 253 252 251 251 250 250 249 248
302 301 301 301 300 300 299 299 298 298 297 296 296 296 296 296 295 295 295 295 295 294 294 294 293 292 292 291 291 290 290 289 288 287 286 286 285 285 284 284 283 283 282 280 279 278 278 277 276 275 275 274 273 273 272 271 270 269 268 268 267 266 266 265 264 264 263 262 261 261 260 259 258 257 256 255 254 253 252 251 250 250 249 249 248 247
302 302 301 301 300 300 300 299 298 298 297 297 297 296 296 296 296 296 296 295 295 295 294 294 293 292 292 291 291 290 290 289 288 287 286 286 285 285 285 284 284 283 281 280 279 278 278 277 277 276 276 275 274 273 272 271 270 270 269 268 267 267 266 265 265 264 263 262 261 260 260 259 258 257 256 255 254 252 251 250 249 249 248 248 247 246
302 302 302 301 301 300 300 299 298 298 298 297 297 297 297 297 297 296 296 296 295 295 294 294 293 292 292 291 291 290 290 289 288 287 287 286 286 286 286 285 284 283 281 280 279 279 279 278 278 277 276 275 274 273 273 272 271 270 269 269 268 267 266 266 265 264 263 262 261 260 259 258 257 256 255 254 253 252 250 249 248 247 247 246 246 245
302 302 302 302 301 301 300 299 299 298 298 298 298 298 298 297 297 297 296 296 295 295 294 294 293 292 292 292 291 290 290 289 289 288 287 287 287 287 286 285 284 283 282 281 281 280 280 279 278 278 277 276 275 274 273 272 271 271 270 269 269 268 267 266 265 264 263 262 261 260 259 257 256 255 254 253 252 251 249 248 247 246 245 245 245 244
303 303 302 302 301 301 300 299 299 299 299 299 299 299 298 298 297 297 296 296 295 295 294 294 294 293 293 292 292 291 291 290 289 288 288 288 288 288 287 286 284 283 282 282 282 282 281 280 279 278 277 276 276 275 274 273 272 271 271 270 269 268 267 266 265 264 263 262 261 259 258 257 256 255 254 252 251 250 248 247 246 245 244 244 243 243
304 303 303 302 301 301 300 300 300 300 300 300 300 299 299 298 298 297 297 296 296 295 295 295 294 294 294 293 293 293 292 291 290 289 289 288 289 288 288 286 285 284 283 284 283 283 282 281 280 279 278 277 276 275 274 273 273 272 271 270 270 269 267 266 265 264 263 261 260 259 258 257 255 254 253 252 250 249 247 246 245 244 243 242 242 241
304 303 303 302 301 301 301 300 300 301 301 301 300 300 299 298 298 297 297 297 297 296 296 295 295 295 295 294 294 294 293 292 291 290 289 289 289 289 288 286 285 285 285 285 284 283 282 281 280 280 279 278 277 276 275 274 273 272 272 271 269 268 267 266 265 264 263 261 260 259 257 256 255 254 252 251 250 248 247 245 244 243 242 241 240 240
305 304 303 302 302 301 301 301 301 302 302 301 301 300 299 299 298 298 298 298 298 297 297 296 296 296 296 295 295 294 294 293 292 291 290 290 290 289 288 287 286 286 286 285 284 284 283 282 281 281 280 279 278 277 276 275 274 273 272 271 269 268 267 266 265 264 262 261 260 258 257 255 254 253 252 250 249 247 246 245 243 242 241 240 239 239
305 304 303 303 303 302 302 302 302 302 302 301 301 300 300 299 299 299 299 299 299 298 298 297 297 297 296 296 295 295 294 294 293 292 291 291 290 290 289 288 287 287 286 286 285 284 284 283 282 281 281 280 279 278 277 276 274 273 272 271 269 268 267 266 265 263 262 261 259 257 256 255 253 252 250 249 248 246 245 244 242 241 240 239 238 238
305 305 304 303 303 303 303 303 303 303 302 302 301 301 300 300 300 300 300 300 300 299 299 298 298 297 297 296 296 295 295 294 293 292 292 292 291 290 289 289 288 288 287 286 286 285 284 284 283 282 281 280 279 278 277 276 274 273 272 271 269 268 267 266 264 263 262 260 258 257 255 253 252 251 249 248 246 245 244 243 241 240 239 238 237 237
305 305 304 304 304 304 304 304 304 303 303 302 301 301 301 301 301 301 301 300 300 300 299 299 298 298 297 297 296 295 295 294 294 293 293 292 292 291 290 289 289 288 288 287 286 285 285 284 283 282 281 280 279 278 276 276 274 273 272 270 269 268 266 265 264 263 261 259 258 256 254 252 251 249 248 246 245 244 243 241 240 239 238 237 236 236
306 305 305 305 305 305 305 304 304 303 303 302 302 302 301 301 301 301 301 301 300 300 300 299 299 298 298 297 297 296 295 295 294 294 293 293 292 292 291 290 289 289 288 287 286 286 285 284 283 281 281 280 279 277 277 275 274 273 272 270 269 268 266 265 263 262 260 259 257 255 254 252 250 248 246 245 244 242 241 240 239 238 237 236 235 234
306 306 306 306 306 305 305 304 304 303 303 303 303 302 302 302 302 302 301 301 301 300 300 299 299 299 298 298 297 296 295 295 294 294 294 293 293 292 291 291 290 289 288 287 287 286 285 284 283 282 281 280 279 278 277 276 274 273 272 271 269 267 266 264 263 262 260 258 257 255 253 251 249 247 246 244 243 241 240 239 238 237 236 235 234 233
306 306 306 306 306 305 305 304 304 304 303 303 303 303 302 302 302 302 302 301 301 300 300 300 299 299 299 298 297 297 296 295 295 294 294 293 293 292 292 291 290 290 289 288 287 286 285 285 284 283 282 281 280 279 278 277 275 274 272 271 269 268 266 265 263 261 260 258 256 254 253 251 249 247 245 243 242 240 239 238 236 235 234 233 232 231
306 306 306 306 305 305 305 304 304 304 303 303 303 302 302 302 302 302 302 301 301 301 300 300 299 299 299 298 298 297 296 296 295 294 294 293 293 292 292 291 291 290 290 289 288 287 287 285 285 284 283 282 281 280 279 277 276 275 273 272 270 268 267 265 263 261 259 257 255 254 252 250 248 246 244 242 241 239 238 236 235 234 232 232 231 230
307 307 306 306 305 305 304 304 304 304 303 303 303 302 302 302 302 302 301 301 301 301 300 300 300 300 299 299 298 297 297 296 295 295 294 293 293 292 292 292 291 291 290 290 289 288 288 287 286 285 284 283 282 282 280 279 278 276 275 273 271 269 267 265 263 261 258 256 254 252 250 248 246 245 243 241 240 238 236 235 233 232 231 230 229 228
307 307 306 306 305 305 304 304 304 303 303 303 302 302 302 302 302 302 302 301 301 301 301 300 300 300 300 299 299 298 297 297 296 295 294 294 293 293 293 292 292 292 291 291 290 289 288 287 287 286 285 285 284 283 282 280 279 278 276 274 272 269 267 265 262 260 257 255 253 251 249 246 245 243 241 240 238 237 235 234 232 231 229 228 227 226
307 307 306 306 305 305 304 304 304 303 303 303 302 302 302 302 302 302 302 302 301 301 301 301 300 300 300 300 299 299 298 297 296 296 295 295 294 294 294 293 293 292 292 292 291 290 289 289 288 287 287 286 285 284 283 282 280 278 277 275 272 270 267 265 262 259 256 253 251 249 246 244 242 240 239 237 236 235 233 232 231 229 228 227 226 224
307 307 306 306 305 304 304 304 303 303 303 303 303 303 302 302 302 302 302 302 302 301 301 301 301 301 300 300 299 299 298 297 297 297 296 296 295 295 294 294 294 293 293 292 291 291 290 290 289 289 288 287 286 285 284 283 281 279 277 275 272 269 267 264 261 258 255 252 249 247 244 242 240 238 236 235 233 232 231 230 229 228 226 225 224 223
307 307 306 306 305 305 304 304 303 303 303 303 303 303 303 303 303 302 302 302 302 302 302 301 301 301 301 300 300 299 299 298 298 297 297 297 296 296 296 295 295 294 294 293 292 291 291 290 290 290 289 289 288 286 285 284 282 279 277 274 272 269 266 264 260 257 253 250 247 244 242 239 236 234 232 231 230 229 228 227 226 225 224 223 222 220
307 307 306 306 305 305 304 304 304 304 304 304 304 304 303 303 303 303 303 303 302 302 302 302 301 301 301 300 300 300 299 299 299 298 298 298 298 297 297 297 296 296 295 295 293 293 292 291 291 291 290 290 289 287 286 284 282 280 277 274 271 269 266 263 259 255 252 248 245 241 239 236 233 230 228 226 225 224 224 223 223 222 221 220 218 217
308 307 306 306 305 305 305 304 304 305 304 304 304 304 304 304 304 304 303 303 303 302 302 302 302 301 301 301 300 300 300 300 300 300 299 299 299 298 298 297 297 296 296 295 295 294 293 293 292 292 291 290 289 288 287 285 282 280 277 274 271 268 265 262 258 254 250 246 242 239 236 232 229 226 224 221 220 219 218 218 218 217 217 216 215 213
308 307 307 306 306 305 305 305 305 305 305 305 305 305 305 305 305 305 304 304 303 303 303 302 302 302 302 302 302 301 302 302 301 301 301 300 300 299 299 299 298 297 297 296 295 295 294 294 293 293 292 291 290 289 288 285 282 280 277 274 271 268 264 260 256 252 248 244 240 236 233 229 225 222 219 216 214 213 212 211 211 211 211 210 210 209
308 307 307 307 306 306 306 306 306 306 306 306 306 306 306 306 305 305 305 305 304 304 304 304 303 303 303 303 304 303 303 303 303 303 303 302 301 301 300 299 299 298 297 296 296 295 295 295 294 294 293 292 291 289 287 285 282 280 277 274 271 268 264 260 255 250 246 241 237 233 229 225 221 218 214 211 209 207 205 205 204 204 204 204 204 204
308 308 307 307 307 307 307 307 307 307 307 307 307 307 307 306 306 306 306 305 305 305 305 305 305 305 305 305 305 305 305 305 305 305 304 304 303 302 301 301 299 298 298 297 297 296 296 295 295 294 293 292 291 289 287 284 282 279 277 274 271 266 263 258 253 248 243 238 233 228 224 220 216 213 210 207 204 202 200 199 198 197 197 197 198 199
309 308 308 308 308 308 308 308 307 308 307 307 307 307 307 307 307 307 307 307 307 307 307 307 307 307 307 307 308 308 307 307 307 307 306 305 304 303 302 301 300 299 298 297 297 297 296 296 295 295 294 292 291 288 286 283 281 278 276 273 270 265 261 256 250 244 238 233 228 222 218 214 211 207 204 202 199 197 195 193 192 191 191 191 191 192
310 309 309 309 309 309 308 308 308 308 308 308 308 308 308 308 308 308 308 309 309 309 309 310 310 310 310 309 309 310 309 309 309 308 307 306 305 304 303 302 301 300 299 298 297 296 296 296 295 295 294 293 290 288 284 281 280 278 275 273 268 264 258 252 246 240 233 226 221 215 210 207 203 201 198 196 193 192 190 189 188 186 185 185 186 187
310 310 310 309 309 309 309 309 309 309 309 309 309 309 309 310 310 310 311 311 312 312 312 312 312 312 312 312 312 311 311 310 310 309 308 308 307 306 304 303 302 300 300 298 298 297 296 296 295 294 293 292 290 286 283 281 279 276 274 271 266 261 254 247 240 233 226 219 213 207 203 199 196 193 191 189 187 186 185 184 183 183 182 181 181 181
311 311 311 310 310 310 309 309 309 309 309 309 310 310 310 311 312 313 314 315 315 315 315 315 315 315 314 314 313 313 312 312 311 311 310 309 308 307 305 304 303 301 300 299 298 297 296 295 294 293 293 290 288 284 282 279 278 274 273 268 263 257 249 240 233 225 218 211 204 199 195 191 189 187 185 184 182 181 181 180 180 179 178 178 177 177
312 312 311 311 311 310 310 310 310 310 310 311 311 311 313 314 315 317 318 319 319 319 319 318 318 317 316 316 315 315 314 313 313 312 311 311 310 309 307 305 304 302 301 299 297 296 295 294 294 293 292 289 286 284 281 278 276 273 269 266 260 252 242 234 224 216 209 202 196 191 188 185 183 182 181 179 178 177 177 176 176 176 176 176 175 175
313 312 312 311 311 311 311 311 311 311 311 312 313 314 315 317 318 320 321 322 322 322 321 320 320 319 318 318 317 316 316 315 315 314 314 313 313 312 310 308 305 304 302 299 297 296 295 294 293 292 291 289 287 284 281 279 275 271 266 261 255 246 238 227 215 207 200 194 189 185 182 180 179 178 177 176 175 174 174 173 173 174 174 174 174 174
313 312 312 311 311 311 311 312 312 313 313 314 315 317 318 320 321 323 324 324 324 323 322 321 321 320 319 319 319 318 318 317 318 317 317 317 316 315 313 311 308 305 302 300 297 296 295 294 293 292 291 289 287 284 282 278 274 267 261 254 248 239 231 220 209 201 194 188 183 181 178 177 176 175 174 174 173 172 172 171 171 172 173 173 173 173
313 312 312 312 312 312 313 313 314 315 315 316 318 319 321 323 324 325 325 325 325 324 323 323 322 321 321 320 320 320 320 320 321 321 321 320 320 319 316 314 311 307 304 301 299 296 295 294 293 292 291 290 287 285 282 278 271 264 255 246 239 233 225 214 205 196 190 183 179 177 176 174 173 173 172 171 171 171 170 170 170 170 171 172 172 173
313 313 312 312 313 313 314 315 315 316 317 319 321 323 324 325 326 326 326 326 325 325 325 324 324 323 322 322 322 322 322 324 325 326 325 324 323 321 319 316 312 309 306 302 300 298 296 294 293 292 291 290 288 284 281 276 269 260 248 238 231 223 216 207 198 192 185 181 176 174 173 172 172 171 170 170 170 170 170 169 169 169 170 171 172 173
313 313 313 313 314 314 315 316 317 318 320 321 323 325 326 327 328 328 327 327 327 327 327 326 326 325 324 324 324 324 326 328 329 331 330 328 326 324 321 318 315 311 308 304 301 299 297 295 293 292 290 289 287 284 279 274 267 258 245 230 219 211 205 199 193 188 182 178 175 173 172 171 172 171 170 170 170 170 170 169 170 170 170 171 172 172
313 313 313 314 314 315 316 317 318 320 322 323 325 326 327 328 329 329 329 329 329 329 329 328 327 326 325 326 326 327 328 331 334 336 335 333 330 326 324 320 316 312 309 305 302 299 297 295 293 291 289 287 285 282 278 274 265 253 239 225 212 202 195 192 188 183 181 176 173 171 171 171 171 171 171 171 171 170 170 170 170 170 170 171 172 172
313 313 313 314 315 316 317 318 319 321 323 324 326 327 328 329 329 330 330 330 331 330 330 329 328 327 327 327 328 329 332 335 337 339 339 337 334 330 326 322 318 314 310 306 303 300 297 294 292 290 288 285 283 280 276 270 263 251 235 219 205 195 188 186 182 181 178 175 173 171 171 170 170 171 171 171 171 171 171 171 171 170 171 171 171 172
313 314 314 315 315 316 317 319 320 322 323 325 326 327 329 329 330 331 331 332 332 332 331 330 328 327 327 327 329 331 335 338 341 342 342 340 336 333 328 324 319 316 311 306 302 299 295 292 289 287 285 283 280 277 272 267 259 249 234 217 203 191 184 181 178 176 174 173 171 170 169 169 170 170 170 171 171 172 171 171 171 171 171 172 172 173
314 314 314 315 316 317 318 320 321 322 324 325 326 327 328 330 331 331 332 333 334 333 331 330 328 327 327 328 330 333 338 341 344 345 345 342 340 336 332 326 321 317 312 308 303 299 294 290 287 284 281 279 276 272 265 262 253 243 229 216 202 191 182 178 175 172 171 170 168 167 167 168 168 169 170 171 171 172 172 172 172 172 172 172 172 173
Height
10302 10297 10292 10287 10284 10280 10274 10268 10264 10260 10256 10250 10244 10239 10235 10230 10224 10218 10213 10209 10204 10199 10195 10192 10189 10185 10182 10179 10175 10172 10168 10165 10162 10160 10159 10157 10156 10155 10154 10152 10150 10149 10147 10147 10146 10145 10144 10144 10143 10142 10141 10140 10139 10137 10136 10135 10135 10135 10135 10135 10135 10136 10136 10137 10137 10138 10139 10140 10142 10144 10145 10148 10149 10151 10153 10155 10157 10159 10161 10164 10166 10168 10171 10175 10179 10182
10286 10282 10276 10271 10268 10265 10260 10254 10248 10244 10240 10235 10229 10224 10219 10214 10209 10204 10199 10195 10190 10185 10182 10178 10175 10172 10169 10167 10164 10160 10157 10154 10152 10150 10149 10147 10145 10144 10142 10141 10139 10137 10136 10135 10134 10134 10132 10132 10131 10130 10130 10129 10127 10126 10125 10124 10123 10123 10123 10124 10124 10125 10125 10125 10126 10127 10128 10129 10130 10132 10134 10136 10138 10140 10142 10144 10145 10148 10150 10153 10155 10157 10160 10163 10167 10170
10272 10267 10262 10256 10252 10249 10245 10239 10234 10229 10224 10219 10215 10210 10205 10200 10195 10190 10185 10181 10177 10172 10169 10165 10162 10159 10157 10155 10152 10149 10147 10144 10142 10140 10139 10136 10134 10132 10131 10130 10128 10126 10125 10124 10123 10122 10121 10120 10120 10119 10119 10118 10117 10115 10114 10114 10112 10112 10112 10113 10114 10114 10115 10115 10115 10116 10117 10119 10120 10122 10124 10125 10127 10129 10131 10133 10135 10137 10140 10142 10145 10147 10149 10152 10155 10159
10257 10252 10247 10242 10238 10234 10230 10225 10220 10214 10209 10205 10200 10195 10191 10187 10182 10177 10173 10169 10164 10160 10157 10154 10150 10148 10145 10144 10142 10139 10137 10134 10132 10130 10129 10126 10124 10122 10120 10119 10117 10115 10114 10113 10112 10110 10110 10109 10109 10109 10109 10108 10107 10106 10105 10104 10103 10102 10102 10103 10104 10104 10104 10105 10105 10106 10107 10108 10110 10111 10113 10115 10117 10119 10120 10122 10125 10127 10129 10132 10134 10135 10139 10142 10145 10148
10242 10238 10234 10229 10225 10220 10216 10212 10207 10201 10195 10191 10187 10183 10179 10174 10170 10165 10161 10157 10153 10149 10145 10142 10139 10137 10135 10133 10131 10129 10127 10125 10123 10120 10118 10115 10114 10112 10110 10109 10107 10105 10104 10102 10101 10100 10099 10099 10099 10099 10099 10098 10098 10097 10096 10095 10094 10094 10093 10093 10094 10094 10094 10095 10095 10096 10097 10099 10100 10101 10103 10104 10106 10108 10110 10112 10114 10116 10119 10120 10122 10125 10127 10131 10134 10137
10228 10224 10220 10216 10212 10207 10203 10199 10194 10188 10183 10179 10175 10171 10167 10162 10158 10154 10150 10145 10142 10138 10135 10132 10129 10127 10125 10123 10121 10120 10118 10116 10114 10110 10108 10105 10103 10101 10100 10098 10097 10095 10094 10092 10091 10090 10089 10089 10089 10089 10089 10089 10089 10088 10087 10086 10085 10084 10084 10084 10084 10084 10084 10085 10085 10086 10087 10089 10090 10091 10092 10094 10095 10097 10100 10102 10104 10105 10107 10109 10112 10114 10117 10120 10124 10127
10215 10211 10207 10204 10200 10195 10190 10186 10181 10176 10171 10167 10163 10160 10156 10151 10147 10142 10138 10134 10130 10127 10124 10122 10120 10117 10114 10112 10111 10110 10109 10107 10104 10101 10098 10095 10093 10091 10090 10089 10087 10086 10085 10083 10082 10081 10080 10080 10079 10079 10079 10079 10079 10078 10077 10077 10075 10075 10074 10074 10074 10074 10074 10075 10075 10076 10077 10079 10080 10081 10082 10084 10085 10087 10090 10092 10094 10095 10097 10099 10101 10104 10106 10110 10114 10117
10202 10199 10195 10191 10187 10183 10178 10174 10169 10165 10160 10155 10152 10148 10145 10141 10137 10132 10128 10124 10120 10116 10114 10112 10110 10108 10105 10103 10101 10100 10099 10097 10094 10091 10088 10085 10084 10082 10080 10079 10078 10077 10075 10074 10073 10072 10072 10071 10070 10070 10070 10069 10069 10068 10067 10066 10065 10065 10064 10064 10064 10064 10064 10065 10065 10067 10068 10069 10070 10072 10073 10074 10076 10078 10080 10082 10084 10085 10088 10090 10092 10094 10097 10100 10104 10107
10191 10187 10184 10180 10175 10171 10166 10162 10157 10154 10150 10145 10140 10137 10134 10130 10127 10124 10120 10115 10110 10106 10104 10103 10101 10099 10096 10094 10092 10090 10089 10087 10084 10081 10078 10076 10074 10073 10072 10070 10069 10067 10066 10065 10064 10064 10063 10062 10062 10061 10060 10060 10059 10058 10057 10056 10055 10055 10055 10055 10055 10055 10055 10055 10057 10057 10059 10060 10061 10062 10064 10065 10067 10069 10070 10073 10075 10077 10079 10081 10083 10085 10089 10091 10095 10098
10180 10177 10173 10169 10164 10160 10156 10151 10147 10142 10139 10134 10130 10127 10123 10119 10116 10114 10112 10107 10102 10097 10094 10093 10092 10090 10087 10085 10083 10081 10079 10077 10074 10072 10069 10067 10065 10064 10063 10062 10060 10059 10057 10057 10055 10055 10054 10054 10053 10052 10050 10050 10049 10048 10047 10047 10047 10046 10046 10046 10046 10046 10047 10047 10048 10049 10050 10051 10052 10054 10055 10056 10058 10060 10062 10064 10067 10069 10070 10073 10075 10077 10080 10082 10085 10089
10170 10166 10162 10158 10154 10150 10146 10141 10137 10132 10128 10124 10120 10117 10114 10109 10106 10104 10102 10099 10095 10090 10086 10084 10082 10080 10079 10077 10075 10073 10070 10067 10064 10062 10060 10059 10057 10056 10055 10054 10052 10050 10049 10048 10047 10045 10045 10044 10044 10042 10041 10040 10040 10039 10039 10039 10038 10038 10037 10037 10037 10037 10038 10039 10039 10040 10042 10043 10044 10045 10047 10048 10049 10051 10054 10056 10059 10060 10062 10064 10066 10069 10070 10073 10076 10079
10160 10156 10152 10149 10144 10140 10135 10131 10127 10123 10119 10114 10110 10107 10104 10100 10097 10094 10092 10090 10087 10082 10079 10075 10073 10071 10070 10069 10067 10065 10062 10059 10055 10053 10050 10049 10049 10048 10047 10046 10044 10043 10041 10040 10038 10037 10035 10035 10034 10034 10032 10032 10032 10031 10030 10030 10029 10029 10029 10029 10029 10029 10030 10030 10031 10032 10034 10035 10036 10037 10039 10040 10042 10044 10045 10047 10050 10052 10054 10056 10058 10060 10062 10064 10067 10070
10151 10147 10143 10139 10134 10130 10125 10122 10117 10114 10110 10105 10102 10099 10095 10092 10089 10085 10083 10081 10078 10075 10072 10069 10065 10062 10061 10060 10060 10058 10055 10051 10047 10044 10042 10040 10040 10040 10040 10039 10037 10035 10033 10031 10030 10028 10027 10026 10025 10025 10025 10024 10024 10024 10022 10022 10021 10021 10021 10021 10021 10021 10022 10022 10024 10024 10025 10027 10028 10029 10030 10032 10034 10035 10037 10039 10042 10044 10045 10047 10050 10052 10054 10056 10059 10061
10142 10138 10134 10130 10125 10120 10116 10112 10108 10104 10101 10097 10094 10090 10087 10084 10081 10078 10075 10073 10070 10067 10064 10061 10058 10055 10053 10052 10052 10050 10048 10044 10040 10037 10034 10032 10032 10033 10033 10032 10029 10027 10024 10023 10021 10020 10019 10019 10019 10018 10017 10017 10016 10015 10015 10014 10014 10013 10013 10013 10014 10014 10014 10015 10016 10017 10018 10019 10020 10022 10024 10025 10026 10027 10029 10031 10033 10035 10038 10040 10042 10044 10046 10048 10050 10053
10134 10130 10125 10121 10117 10112 10107 10102 10099 10095 10092 10089 10085 10082 10079 10076 10074 10070 10068 10065 10062 10060 10057 10054 10050 10047 10045 10044 10044 10044 10042 10038 10033 10029 10026 10025 10025 10026 10027 10025 10022 10018 10016 10015 10014 10013 10013 10012 10012 10010 10010 10009 10009 10008 10007 10007 10006 10006 10005 10006 10006 10007 10007 10008 10009 10010 10010 10012 10013 10014 10015 10015 10017 10019 10021 10023 10025 10027 10030 10032 10034 10036 10038 10040 10042 10044
10126 10122 10117 10113 10108 10104 10099 10094 10090 10087 10084 10081 10078 10075 10071 10068 10065 10063 10060 10058 10055 10053 10050 10047 10044 10040 10038 10037 10036 10036 10035 10032 10027 10022 10019 10017 10018 10019 10020 10018 10014 10010 10008 10007 10007 10007 10007 10005 10005 10004 10003 10002 10002 10001 10000 10000 9999 9999 9999 9999 9999 10000 10000 10001 10002 10003 10004 10004 10005 10006 10007 10008 10009 10011 10013 10015 10017 10020 10022 10024 10025 10028 10030 10032 10034 10037
10117 10113 10108 10104 10100 10095 10090 10086 10082 10079 10076 10074 10070 10067 10064 10060 10057 10055 10053 10050 10048 10045 10043 10040 10037 10034 10030 10029 10028 10028 10027 10025 10020 10016 10013 10011 10011 10012 10013 10010 10007 10003 10001 10001 10001 10001 10000 9999 9998 9997 9996 9995 9995 9995 9994 9994 9993 9993 9993 9992 9993 9993 9994 9994 9995 9996 9996 9997 9997 9999 9999 10000 10002 10004 10005 10007 10009 10011 10014 10015 10018 10020 10022 10024 10027 10029
10109 10104 10099 10095 10092 10088 10083 10078 10074 10072 10069 10067 10063 10059 10055 10052 10050 10047 10045 10043 10041 10039 10036 10033 10030 10028 10025 10022 10019 10019 10019 10017 10014 10010 10007 10005 10005 10006 10006 10004 10000 9997 9995 9995 9995 9995 9994 9992 9992 9990 9990 9989 9989 9989 9988 9987 9987 9987 9987 9987 9987 9987 9987 9987 9987 9988 9989 9990 9990 9992 9992 9994 9995 9997 9998 10000 10002 10004 10006 10009 10010 10012 10015 10017 10019 10022
10100 10095 10091 10087 10084 10080 10075 10071 10067 10064 10062 10059 10055 10052 10048 10045 10042 10040 10038 10036 10034 10032 10029 10027 10024 10022 10019 10016 10014 10012 10011 10010 10007 10004 10002 10000 10000 10000 9999 9997 9994 9992 9991 9990 9990 9989 9988 9987 9986 9985 9984 9984 9983 9982 9982 9982 9982 9981 9981 9981 9980 9980 9980 9981 9981 9982 9982 9983 9984 9985 9986 9987 9989 9990 9992 9993 9995 9997 9999 10001 10004 10005 10008 10010 10012 10015
10090 10087 10082 10078 10075 10072 10069 10064 10060 10057 10055 10052 10049 10045 10041 10038 10035 10033 10030 10029 10027 10025 10022 10020 10018 10015 10013 10010 10008 10006 10004 10003 10000 9998 9996 9995 9995 9994 9993 9991 9989 9987 9986 9985 9985 9984 9982 9981 9980 9980 9979 9978 9977 9977 9977 9976 9976 9975 9975 9975 9975 9975 9975 9975 9975 9976 9977 9977 9978 9979 9980 9981 9983 9984 9985 9987 9989 9990 9992 9995 9997 9999 10001 10004 10006 10008
10082 10077 10074 10070 10067 10064 10061 10057 10054 10050 10047 10044 10041 10038 10034 10031 10029 10025 10024 10022 10020 10017 10015 10014 10012 10010 10008 10005 10003 10000 9999 9997 9995 9992 9990 9990 9989 9989 9987 9985 9984 9982 9982 9980 9979 9978 9977 9976 9975 9974 9974 9973 9972 9972 9971 9971 9970 9970 9970 9970 9969 9969 9969 9969 9970 9970 9971 9972 9972 9974 9974 9975 9977 9978 9979 9981 9983 9985 9986 9988 9990 9992 9995 9997 9999 10002
10072 10069 10065 10062 10059 10056 10054 10050 10047 10044 10040 10038 10035 10031 10028 10025 10022 10019 10017 10015 10013 10011 10009 10007 10005 10004 10002 10000 9998 9995 9994 9992 9990 9987 9985 9984 9984 9983 9982 9980 9979 9978 9977 9975 9975 9974 9972 9972 9970 9970 9969 9968 9967 9967 9966 9965 9965 9965 9965 9964 9964 9964 9964 9964 9965 9965 9965 9966 9967 9968 9969 9970 9971 9972 9974 9975 9977 9979 9980 9982 9984 9987 9989 9991 9994 9996
10064 10061 10057 10054 10051 10049 10046 10043 10040 10037 10034 10031 10028 10024 10021 10019 10016 10014 10012 10009 10007 10005 10003 10001 10000 9999 9997 9995 9993 9991 9989 9987 9985 9983 9981 9979 9979 9978 9977 9976 9975 9974 9972 9971 9970 9969 9968 9967 9966 9965 9964 9964 9963 9962 9961 9961 9960 9960 9960 9960 9960 9960 9960 9960 9960 9960 9960 9961 9962 9963 9964 9965 9966 9967 9969 9970 9972 9974 9975 9977 9979 9982 9984 9985 9988 9990
10057 10054 10050 10047 10044 10042 10039 10037 10034 10030 10027 10024 10020 10017 10015 10012 10010 10009 10007 10004 10002 9999 9997 9995 9994 9993 9992 9990 9989 9986 9984 9982 9980 9979 9977 9975 9974 9973 9972 9971 9970 9969 9968 9967 9965 9965 9964 9963 9962 9960 9960 9959 9959 9958 9957 9957 9956 9956 9955 9955 9955 9955 9955 9955 9955 9956 9956 9957 9958 9959 9959 9960 9962 9962 9964 9965 9967 9969 9970 9972 9974 9976 9978 9980 9983 9985
10050 10047 10044 10041 10038 10035 10033 10030 10027 10024 10020 10017 10014 10012 10009 10007 10005 10003 10001 9999 9997 9995 9992 9991 9989 9988 9987 9985 9984 9982 9980 9978 9977 9975 9973 9971 9970 9969 9968 9967 9966 9965 9964 9963 9962 9961 9960 9959 9957 9957 9955 9955 9954 9954 9953 9952 9952 9952 9952 9951 9951 9951 9951 9951 9952 9952 9952 9953 9954 9954 9955 9956 9957 9959 9960 9960 9962 9964 9965 9967 9969 9970 9973 9975 9978 9980
10044 10041 10038 10035 10032 10029 10026 10024 10020 10018 10015 10012 10009 10007 10004 10002 9999 9997 9996 9994 9992 9990 9989 9987 9985 9984 9982 9981 9979 9977 9975 9974 9973 9971 9969 9968 9966 9965 9964 9963 9962 9961 9960 9959 9958 9957 9955 9955 9954 9952 9952 9951 9950 9950 9949 9949 9949 9948 9948 9947 9947 9947 9947 9948 9948 9949 9949 9949 9950 9951 9952 9952 9954 9955 9956 9957 9958 9959 9960 9962 9964 9966 9968 9970 9973 9975
10038 10035 10033 10030 10027 10024 10020 10018 10015 10013 10010 10008 10005 10002 10000 9997 9995 9993 9991 9989 9988 9986 9984 9982 9980 9979 9978 9977 9975 9974 9972 9970 9969 9967 9966 9965 9963 9961 9960 9959 9959 9957 9956 9955 9954 9953 9952 9950 9950 9949 9948 9947 9947 9946 9946 9945 9945 9945 9944 9944 9944 9944 9944 9944 9945 9945 9945 9946 9947 9947 9949 9949 9950 9951 9952 9953 9954 9955 9957 9959 9960 9962 9964 9966 9969 9971
10032 10030 10027 10024 10021 10018 10015 10013 10010 10008 10005 10004 10001 9999 9996 9994 9992 9989 9987 9985 9984 9982 9980 9979 9977 9975 9974 9973 9971 9970 9968 9967 9965 9964 9962 9961 9960 9958 9957 9955 9955 9954 9952 9951 9950 9949 9948 9947 9946 9945 9945 9944 9944 9943 9943 9942 9942 9942 9941 9941 9941 9941 9941 9942 9942 9942 9942 9943 9944 9944 9945 9946 9947 9948 9949 9950 9951 9952 9954 9955 9957 9959 9960 9962 9965 9967
10027 10024 10022 10019 10016 10013 10010 10008 10005 10004 10001 9999 9997 9994 9992 9990 9988 9986 9984 9982 9980 9979 9977 9975 9973 9972 9970 9969 9967 9966 9965 9964 9962 9960 9959 9958 9957 9955 9954 9952 9951 9950 9949 9948 9947 9945 9945 9944 9943 9942 9942 9941 9940 9940 9940 9939 9939 9939 9939 9939 9939 9939 9939 9939 9939 9939 9939 9940 9940 9941 9942 9942 9944 9945 9946 9947 9949 9950 9951 9952 9954 9956 9957 9959 9961 9964
10022 10019 10016 10014 10011 10009 10005 10003 10001 9999 9997 9995 9993 9990 9989 9987 9985 9982 9980 9979 9977 9975 9973 9971 9970 9968 9967 9965 9964 9963 9962 9960 9959 9957 9956 9955 9954 9952 9951 9950 9948 9947 9946 9945 9944 9942 9941 9940 9940 9939 9939 9939 9938 9937 9937 9937 9937 9936 9936 9936 9935 9935 9935 9936 9936 9936 9937 9937 9937 9938 9939 9940 9940 9942 9943 9944 9945 9947 9948 9950 9951 9953 9954 9956 9958 9960
10016 10014 10011 10009 10006 10004 10001 9999 9997 9995 9993 9991 9989 9987 9985 9983 9981 9979 9977 9975 9974 9972 9970 9968 9967 9965 9964 9962 9961 9960 9959 9957 9956 9955 9954 9952 9950 9949 9948 9947 9945 9944 9944 9943 9942 9940 9939 9938 9937 9937 9936 9936 9935 9935 9935 9935 9934 9934 9934 9933 9933 9933 9934 9934 9934 9934 9934 9934 9935 9935 9936 9937 9938 9939 9940 9941 9942 9944 9945 9947 9949 9950 9952 9954 9955 9958
10011 10009 10007 10004 10002 9999 9997 9995 9993 9991 9989 9987 9985 9984 9982 9980 9978 9976 9974 9972 9971 9969 9967 9965 9964 9962 9961 9960 9959 9957 9955 9954 9953 9952 9950 9950 9948 9946 9945 9944 9943 9942 9940 9940 9939 9938 9937 9935 9935 9934 9934 9934 9934 9933 9933 9932 9932 9932 9931 9931 9930 9931 9931 9931 9931 9931 9931 9932 9932 9933 9934 9934 9935 9936 9937 9939 9940 9941 9943 9945 9946 9948 9950 9952 9954 9956
10007 10004 10002 9999 9997 9995 9993 9991 9989 9987 9985 9984 9982 9980 9979 9977 9975 9974 9972 9970 9968 9966 9964 9963 9961 9959 9958 9957 9955 9954 9953 9951 9950 9949 9948 9947 9945 9944 9943 9942 9940 9939 9938 9937 9937 9936 9935 9934 9933 9932 9932 9932 9932 9931 9931 9930 9930 9929 9929 9929 9929 9929 9929 9929 9929 9929 9929 9929 9930 9930 9931 9932 9932 9934 9935 9936 9937 9939 9940 9942 9944 9946 9948 9950 9952 9954
10002 10000 9997 9995 9993 9991 9989 9987 9985 9984 9982 9980 9979 9977 9975 9974 9972 9970 9969 9967 9965 9964 9962 9960 9959 9957 9955 9954 9953 9952 9950 9949 9947 9947 9945 9945 9944 9942 9940 9939 9938 9937 9936 9935 9934 9933 9932 9932 9931 9930 9930 9930 9930 9930 9929 9929 9928 9927 9927 9927 9927 9927 9927 9927 9927 9927 9927 9927 9928 9928 9929 9930 9930 9932 9932 9934 9935 9936 9938 9940 9942 9944 9946 9948 9950 9953
9998 9995 9994 9992 9989 9987 9985 9984 9982 9980 9979 9977 9975 9974 9972 9971 9969 9967 9966 9964 9962 9961 9959 9958 9957 9955 9954 9952 9950 9949 9948 9947 9945 9944 9944 9942 9941 9940 9939 9937 9936 9935 9934 9933 9932 9931 9930 9930 9929 9929 9929 9929 9928 9928 9927 9927 9926 9926 9925 9925 9925 9925 9925 9925 9925 9925 9925 9926 9926 9927 9927 9928 9929 9930 9930 9932 9933 9934 9936 9938 9940 9942 9944 9947 9949 9952
9994 9992 9990 9988 9986 9984 9982 9981 9979 9977 9976 9974 9973 9971 9970 9968 9967 9965 9964 9962 9960 9959 9957 9955 9954 9953 9951 9950 9949 9947 9945 9944 9943 9942 9941 9940 9939 9938 9937 9935 9934 9934 9932 9931 9930 9930 9929 9928 9928 9927 9927 9927 9927 9926 9926 9925 9925 9924 9924 9924 9924 9924 9924 9924 9924 9924 9924 9925 9925 9925 9927 9927 9928 9929 9930 9931 9932 9933 9934 9936 9938 9940 9942 9945 9947 9950
9991 9989 9987 9985 9983 9981 9980 9978 9976 9975 9973 9972 9970 9969 9967 9965 9964 9962 9961 9959 9958 9957 9955 9953 9952 9950 9949 9948 9947 9945 9944 9942 9941 9940 9939 9939 9937 9937 9935 9934 9932 9932 9931 9930 9929 9928 9927 9927 9926 9926 9926 9925 9925 9925 9924 9924 9924 9923 9923 9923 9922 9922 9922 9922 9923 9923 9924 9924 9925 9925 9926 9927 9927 9929 9929 9930 9931 9932 9934 9935 9937 9939 9941 9944 9946 9949
9988 9986 9984 9982 9980 9979 9977 9975 9974 9972 9971 9969 9968 9966 9965 9964 9962 9960 9959 9957 9956 9954 9953 9951 9950 9949 9947 9945 9944 9944 9942 9941 9940 9939 9937 9936 9935 9935 9934 9932 9931 9930 9929 9929 9927 9927 9926 9925 9925 9925 9924 9924 9924 9924 9923 9922 9922 9922 9922 9922 9922 9922 9922 9922 9922 9922 9922 9923 9924 9924 9925 9926 9927 9928 9929 9930 9930 9932 9933 9934 9935 9938 9940 9942 9945 9947
9985 9983 9981 9979 9978 9976 9975 9973 9971 9970 9969 9967 9965 9964 9963 9961 9960 9959 9957 9955 9954 9952 9951 9949 9948 9947 9945 9944 9943 9942 9940 9939 9938 9937 9935 9935 9934 9933 9932 9930 9929 9929 9928 9927 9926 9925 9925 9924 9924 9924 9923 9923 9923 9922 9922 9922 9922 9921 9921 9921 9921 9921 9921 9921 9922 9922 9922 9922 9923 9924 9924 9925 9927 9927 9929 9930 9931 9932 9933 9934 9935 9937 9939 9941 9944 9946
9982 9980 9979 9977 9975 9974 9972 9970 9969 9968 9966 9965 9964 9962 9961 9959 9958 9957 9955 9954 9952 9950 9949 9948 9946 9945 9944 9942 9942 9940 9939 9938 9937 9935 9934 9933 9932 9931 9930 9930 9929 9927 9927 9925 9925 9924 9924 9923 9923 9922 9922 9922 9922 9921 9920 9920 9920 9920 9920 9920 9920 9920 9920 9921 9921 9921 9922 9922 9923 9924 9924 9925 9926 9927 9929 9930 9932 9932 9934 9935 9935 9937 9939 9941 9943 9945
9980 9979 9977 9975 9973 9972 9970 9969 9967 9965 9964 9963 9962 9960 9959 9958 9957 9955 9954 9952 9950 9949 9947 9946 9945 9944 9942 9941 9940 9939 9937 9936 9935 9934 9933 9932 9931 9930 9929 9929 9927 9926 9925 9925 9924 9923 9923 9922 9922 9921 9921 9921 9920 9920 9920 9920 9920 9920 9920 9920 9920 9920 9920 9920 9920 9921 9922 9922 9923 9924 9924 9925 9925 9927 9928 9929 9931 9932 9934 9935 9937 9938 9939 9941 9943 9945
9978 9976 9974 9973 9971 9970 9968 9967 9965 9964 9962 9961 9960 9959 9957 9956 9955 9954 9952 9950 9949 9947 9946 9945 9944 9942 9941 9940 9939 9937 9936 9935 9934 9933 9932 9930 9930 9929 9928 9927 9926 9925 9924 9924 9923 9922 9922 9921 9921 9920 9920 9920 9920 9919 9919 9919 9919 9919 9920 9920 9920 9920 9920 9920 9920 9921 9922 9922 9922 9924 9924 9925 9925 9927 9927 9929 9930 9931 9933 9935 9937 9939 9940 9941 9943 9945
9976 9974 9973 9971 9969 9968 9966 9965 9964 9962 9961 9960 9959 9957 9956 9955 9954 9952 9950 9949 9948 9946 9945 9944 9942 9941 9940 9939 9937 9936 9935 9934 9933 9932 9930 9930 9929 9928 9927 9926 9925 9924 9924 9923 9922 9921 9920 9920 9920 9920 9920 9919 9919 9919 9919 9919 9919 9919 9919 9920 9920 9920 9920 9920 9920 9921 9922 9922 9923 9924 9924 9925 9926 9927 9928 9929 9930 9931 9932 9934 9936 9938 9940 9942 9944 9945
9975 9973 9971 9969 9967 9966 9965 9963 9962 9960 9959 9958 9957 9955 9954 9953 9952 9950 9949 9948 9947 9945 9944 9942 9941 9940 9939 9937 9936 9935 9934 9933 9932 9931 9930 9929 9928 9927 9926 9925 9924 9924 9923 9922 9922 9920 9920 9920 9919 9919 9919 9919 9919 9919 9919 9919 9919 9919 9919 9920 9920 9920 9920 9920 9921 9922 9922 9923 9924 9924 9925 9925 9926 9927 9928 9929 9930 9932 9933 9935 9936 9938 9940 9942 9944 9946
9973 9971 9969 9967 9966 9965 9963 9962 9960 9959 9958 9957 9955 9954 9953 9952 9950 9949 9948 9947 9945 9944 9943 9942 9940 9939 9938 9937 9935 9934 9933 9932 9931 9930 9929 9928 9927 9926 9925 9924 9924 9923 9922 9922 9921 9920 9920 9919 9919 9919 9919 9919 9919 9919 9919 9919 9919 9919 9919 9920 9920 9920 9920 9921 9922 9922 9923 9924 9924 9924 9925 9926 9927 9928 9929 9930 9931 9932 9934 9935 9937 9939 9942 9943 9945 9947
9971 9969 9968 9966 9965 9963 9962 9960 9959 9957 9957 9955 9954 9953 9952 9950 9949 9948 9947 9946 9944 9943 9942 9941 9940 9939 9937 9935 9935 9934 9932 9931 9930 9929 9928 9927 9926 9925 9925 9924 9923 9922 9922 9921 9920 9920 9919 9919 9919 9919 9919 9918 9918 9918 9919 9919 9919 9919 9919 9920 9920 9920 9920 9922 9922 9923 9924 9924 9925 9925 9925 9927 9927 9929 9929 9930 9932 9933 9935 9937 9939 9941 9944 9944 9946 9948
9970 9968 9966 9965 9963 9962 9960 9959 9957 9956 9955 9954 9953 9952 9950 9949 9948 9947 9946 9945 9944 9942 9941 9940 9939 9937 9936 9935 9934 9932 9932 9930 9930 9929 9927 9927 9925 9925 9924 9924 9923 9922 9922 9920 9920 9919 9919 9919 9919 9919 9918 9918 9918 9918 9919 9919 9919 9919 9919 9920 9920 9920 9921 9922 9922 9924 9924 9925 9925 9925 9927 9927 9928 9929 9930 9932 9933 9934 9935 9937 9939 9942 9944 9945 9947 9949
9969 9967 9965 9964 9962 9960 9959 9957 9956 9955 9954 9952 9951 9950 9949 9949 9947 9946 9945 9944 9942 9942 9940 9939 9938 9937 9935 9934 9933 9932 9931 9930 9929 9928 9927 9926 9925 9924 9924 9923 9922 9922 9921 9920 9920 9919 9919 9919 9919 9918 9918 9918 9918 9919 9919 9919 9919 9919 9920 9920 9920 9921 9922 9922 9923 9924 9925 9925 9925 9927 9927 9928 9929 9930 9932 9932 9934 9935 9936 9938 9940 9942 9944 9946 9948 9950
9967 9965 9964 9962 9960 9959 9957 9956 9955 9954 9952 9951 9950 9949 9948 9947 9947 9945 9944 9943 9942 9940 9939 9938 9937 9936 9935 9934 9932 9931 9930 9929 9929 9927 9926 9925 9925 9924 9923 9922 9922 9922 9921 9920 9920 9919 9919 9919 9919 9918 9919 9919 9919 9919 9919 9919 9919 9920 9920 9920 9921 9922 9922 9923 9924 9924 9925 9925 9926 9927 9928 9929 9930 9931 9932 9933 9934 9936 9937 9939 9940 9942 9945 9947 9949 9951
9965 9964 9962 9961 9959 9958 9957 9955 9954 9952 9951 9950 9949 9948 9947 9946 9945 9944 9944 9942 9940 9939 9939 9937 9936 9935 9934 9933 9932 9930 9930 9929 9928 9927 9926 9925 9924 9924 9923 9922 9922 9921 9921 9920 9920 9919 9919 9919 9919 9919 9919 9919 9919 9919 9919 9919 9920 9920 9920 9921 9922 9922 9923 9924 9924 9924 9925 9926 9927 9928 9929 9930 9931 9932 9933 9934 9935 9937 9939 9940 9942 9944 9945 9947 9949 9952
9964 9963 9961 9960 9958 9957 9955 9954 9952 9951 9950 9949 9948 9947 9946 9945 9944 9943 9942 9941 9940 9939 9937 9937 9935 9935 9934 9932 9931 9930 9929 9928 9927 9926 9925 9925 9924 9924 9923 9922 9922 9921 9920 9920 9920 9919 9919 9919 9919 9919 9919 9919 9919 9919 9920 9920 9920 9920 9920 9921 9922 9923 9924 9924 9924 9925 9926 9927 9928 9929 9930 9931 9932 9933 9934 9935 9937 9938 9939 9941 9942 9944 9946 9948 9950 9952